Location: Briis
(48.6240°N, 2.1211°E)
Time: 06:03:28
(UTC+00:00)

BREEZE M DEB (TANK) - Pass Details

Date: 25 September 2020
Orbit: 299 x 11871 km, 49.5° (Epoch: 19 October)

Event Time Altitude Azimuth Distance (km) Brightness Sun altitude
Rises 03:32:42 0° 298° (WNW) 9,865 8.3 -21.7°
Reaches altitude 10° 03:42:18 10° 295° (WNW) 6,782 7.4 -20.2°
Maximum altitude 03:56:36 42° 232° (SW) 1,763 4.4 -18.0°
Drops below altitude 10° 04:01:09 10° 160° (SSE) 2,195 5.4 -17.3°
Sets 04:02:42 0° 152° (SSE) 2,763 6.0 -17.1°
